Wind_Speed
27 26 26 25 24 23 22 22 23 24 24 23 22 21 20 20 19 17 15 15 15 15 14 13 13 14 14 15 17 19 20 21 21 21 21 22 22 22 22 22 22 23 24 24 25 25 26 26 26 27 27 27 27 27 27 28 28 28 28 28 28 27 27 27 27 29 31 31 32 33 33 33 33 34 34 34 34 34 35 35 35 34 34 35 36
28 26 25 25 25 26 25 25 25 25 26 25 24 23 22 21 20 19 18 16 15 15 16 16 16 17 17 16 16 17 18 20 21 22 23 23 24 24 25 25 25 25 25 26 26 27 27 27 28 28 29 29 29 29 29 29 29 29 29 30 30 29 29 30 30 30 32 33 33 34 34 35 35 36 36 37 37 37 38 38 38 38 38 38 38
26 25 25 26 27 28 28 27 26 27 28 29 28 27 26 25 23 22 21 19 17 16 16 17 18 18 19 19 18 17 18 18 19 20 21 22 23 24 25 26 27 28 29 29 29 29 29 29 29 30 31 31 31 32 32 32 32 32 32 32 32 32 32 32 32 32 33 34 35 35 35 35 36 37 37 37 38 39 39 40 40 41 41 41 41
28 28 29 28 28 28 29 28 28 29 30 31 31 30 30 29 27 25 24 23 22 20 18 18 18 18 19 20 20 20 20 20 20 20 21 22 22 23 24 25 27 28 30 31 32 32 32 32 32 32 32 32 33 33 34 34 35 35 35 35 35 35 34 34 34 34 34 35 36 36 36 36 36 37 37 37 38 39 39 40 41 42 42 43 43
35 33 33 31 29 28 29 30 30 30 31 32 34 34 33 32 31 30 29 27 26 24 23 22 22 21 21 21 22 23 23 22 21 22 23 24 24 24 25 26 27 28 29 30 32 33 34 34 34 34 34 34 35 35 35 35 36 36 37 37 37 37 36 35 35 34 34 35 36 37 37 37 37 37 38 38 38 39 40 40 41 42 42 43 43
37 35 34 33 32 32 33 33 33 33 33 33 35 37 37 36 34 34 34 32 30 29 28 28 28 28 26 24 24 24 24 23 23 24 26 27 28 28 28 28 29 29 29 29 30 32 34 35 36 36 37 37 37 36 37 36 37 37 37 38 38 38 37 37 36 35 34 34 35 36 36 37 37 37 37 38 38 38 39 40 40 41 42 43 43
39 38 37 37 37 37 36 36 36 36 35 35 37 40 41 39 38 37 37 37 35 34 34 33 33 33 33 31 29 27 26 26 27 28 29 29 30 31 31 31 32 32 32 31 31 32 34 35 37 38 38 38 38 38 37 37 37 38 38 38 39 39 39 38 38 37 35 35 35 36 36 36 36 36 36 37 37 36 37 38 38 38 40 41 42
40 42 42 42 42 41 40 40 40 40 39 38 40 41 43 42 42 41 40 40 39 37 37 37 37 37 37 36 35 32 31 31 32 32 33 31 31 31 32 33 35 35 36 35 35 34 34 35 37 39 40 40 40 39 38 38 38 38 39 40 40 40 40 40 39 38 37 36 35 35 35 34 33 33 34 35 36 35 35 35 35 35 37 38 39
40 40 41 42 43 42 42 42 42 42 42 42 42 43 44 44 43 43 43 43 42 40 39 38 39 39 40 40 39 37 36 36 36 36 36 36 35 35 36 37 38 38 39 39 39 39 38 38 38 40 41 42 42 41 40 39 39 39 40 41 41 41 41 41 40 39 38 37 36 35 35 34 33 32 33 34 35 34 34 34 34 34 35 36 37
44 43 42 42 41 41 41 42 43 44 44 43 43 44 45 45 44 44 44 44 43 42 41 41 41 42 43 43 42 41 40 40 39 40 40 40 41 40 39 39 38 37 37 38 39 40 41 40 40 41 42 44 44 44 43 42 41 40 40 41 42 42 42 41 40 39 38 37 36 36 36 36 35 35 35 35 36 36 35 35 36 36 37 38 38
50 50 49 49 48 46 44 44 45 46 46 45 44 44 45 46 46 46 46 46 46 45 45 45 45 45 45 45 44 44 43 42 42 42 43 44 44 43 41 39 38 38 38 38 39 40 41 42 42 42 43 44 45 46 46 46 44 43 42 42 42 43 43 43 43 41 40 39 38 38 38 38 38 38 38 38 39 40 40 40 40 40 40 41 41
53 54 53 54 54 53 52 50 50 51 51 50 50 48 48 48 48 49 49 50 51 51 51 50 50 49 48 47 47 47 47 47 46 45 45 45 46 46 44 43 43 44 44 44 45 46 45 44 45 45 44 45 45 46 46 46 47 46 46 45 45 45 45 46 46 45 44 43 42 42 42 42 42 42 42 42 42 43 45 45 45 45 45 45 46
56 56 56 56 56 55 55 55 55 55 55 56 56 55 53 52 52 52 53 54 55 55 55 55 54 52 51 50 50 50 51 51 50 48 47 47 47 48 47 47 47 48 48 49 50 50 48 46 46 47 47 46 46 47 47 47 47 47 47 47 48 48 48 49 49 49 49 48 47 46 46 47 47 47 47 47 46 46 47 48 49 50 50 50 51
57 58 58 58 58 58 57 57 57 57 58 58 58 58 58 57 56 56 56 57 57 57 58 57 56 55 53 53 53 52 53 53 53 52 51 49 48 47 47 47 47 48 49 49 48 48 48 48 48 49 49 48 47 48 50 51 50 50 49 49 49 49 50 51 51 51 52 52 52 51 51 51 51 52 52 52 51 50 50 50 52 53 53 54 55
56 57 58 58 59 59 59 59 58 58 58 58 58 59 59 58 58 58 57 57 57 57 57 57 57 56 56 55 55 55 54 54 54 53 53 52 51 49 48 47 47 48 49 48 45 43 44 47 49 51 50 49 48 50 53 54 54 53 53 52 52 51 51 51 52 53 54 55 55 56 56 56 56 56 56 56 56 55 55 55 55 55 56 57 57
54 55 56 57 58 59 59 59 59 59 59 58 58 58 58 57 57 57 57 57 57 57 57 57 57 58 57 58 57 57 56 56 55 55 54 54 54 53 51 50 49 49 50 50 49 48 47 48 49 50 51 51 52 52 53 55 56 55 55 54 54 54 53 53 53 53 55 55 56 56 57 58 59 59 60 60 60 60 61 60 60 60 60 60 61
53 54 54 55 56 57 58 58 58 58 58 58 58 58 58 57 57 57 57 57 57 58 58 58 58 58 58 58 58 58 58 57 56 56 56 56 56 56 55 53 52 51 51 52 53 54 54 53 51 51 52 53 54 53 53 53 53 55 56 56 56 56 56 55 55 54 55 55 55 55 56 57 58 60 61 62 63 64 65 64 65 65 65 64 65
54 53 53 53 54 54 55 55 56 56 56 56 57 57 57 57 57 57 57 57 57 58 58 58 58 58 57 57 57 57 57 56 57 58 59 58 57 55 54 54 53 53 53 53 54 54 55 55 54 54 54 54 55 55 55 53 51 52 54 56 57 58 58 58 58 58 58 58 58 59 58 58 59 60 62 64 65 67 68 67 68 69 68 68 69
53 53 52 52 52 53 53 53 53 54 54 54 54 55 55 55 55 55 55 56 56 56 56 57 57 57 57 57 56 55 54 54 55 56 54 51 50 50 51 51 52 53 53 53 53 53 53 53 53 53 53 54 55 57 57 55 53 52 53 54 55 57 58 59 59 59 60 60 61 62 62 61 61 62 63 65 67 69 70 70 71 71 71 70 69
53 53 52 52 52 52 52 52 52 52 53 53 53 53 54 54 54 54 54 54 54 55 55 55 55 56 56 55 54 52 50 49 50 48 47 47 48 49 50 50 51 51 51 51 52 52 52 52 52 52 52 54 56 56 56 55 54 54 54 52 51 52 53 54 54 55 55 56 58 59 61 61 62 63 64 66 68 70 71 72 74 74 73 71 69
51 51 51 51 51 51 52 52 52 53 53 53 53 53 54 54 54 54 54 54 54 54 54 54 54 54 54 53 51 48 47 48 50 50 50 50 50 49 49 49 49 49 49 49 49 50 50 50 50 51 52 53 54 54 53 53 53 53 53 52 50 50 51 51 52 52 53 54 55 57 58 60 61 63 65 67 69 70 71 73 74 74 72 70 70
49 49 49 49 50 50 51 51 52 52 53 54 54 54 54 55 55 54 54 54 54 53 53 53 53 52 51 50 49 47 47 48 51 51 50 49 47 47 47 46 46 45 45 46 46 46 46 46 46 47 48 49 50 50 50 51 52 51 51 51 51 51 52 52 52 53 54 56 57 57 59 60 62 63 66 68 70 72 73 74 73 72 71 71 72
48 48 48 48 48 49 50 50 51 51 52 53 54 53 53 54 54 54 54 54 54 54 53 52 52 51 50 49 49 48 47 47 48 48 48 47 46 45 44 42 41 41 41 42 43 44 44 44 42 41 42 43 44 45 47 48 49 48 48 49 50 51 52 52 53 54 56 57 58 59 61 63 64 66 68 70 72 73 73 73 73 74 74 74 74
48 48 48 48 49 50 51 51 51 51 51 52 52 52 52 53 53 53 53 53 53 53 52 51 50 50 49 49 48 48 48 48 47 47 46 44 43 42 42 42 43 43 44 45 46 47 48 49 48 48 47 47 47 47 48 48 49 49 50 52 54 55 56 57 57 59 60 61 62 63 65 67 69 70 71 72 73 74 74 74 75 75 76 76 77
49 50 50 51 51 52 53 52 52 51 51 51 52 52 52 52 52 52 52 53 53 52 51 50 50 49 49 48 48 48 47 46 45 44 42 40 39 38 39 39 41 42 44 45 47 48 50 51 53 55 55 56 57 57 57 57 57 58 59 60 60 61 61 62 62 63 63 64 65 66 68 70 72 72 73 74 74 75 75 75 75 76 77 77 76
51 52 53 53 53 53 53 53 53 53 52 53 53 53 53 53 53 53 53 52 52 52 51 50 49 49 48 47 46 44 43 42 41 39 37 35 34 35 36 38 39 40 42 43 44 45 45 47 48 50 51 53 54 56 57 58 59 60 61 62 63 64 64 65 65 65 64 65 67 69 71 72 73 74 74 75 74 75 75 76 76 75 74 70 66
53 53 54 54 54 54 54 53 54 54 53 53 54 53 53 53 52 52 52 51 51 50 49 47 47 46 45 43 40 38 37 37 36 34 32 32 33 35 37 38 39 40 42 43 44 45 45 46 47 48 49 49 50 51 52 53 54 56 58 61 63 64 65 65 65 66 67 69 71 72 72 73 73 73 74 74 74 75 74 73 70 66 62 59 56
53 53 54 54 54 54 53 52 52 51 50 50 49 48 47 47 47 46 45 43 42 41 41 42 41 40 38 36 34 33 33 34 34 33 32 33 35 36 36 37 39 41 43 45 46 48 49 51 52 53 54 54 54 54 54 54 55 56 58 60 62 64 65 66 67 68 70 71 71 70 71 72 72 73 73 72 70 68 65 62 58 56 54 52 51
53 54 54 54 53 51 48 46 45 43 41 40 39 38 37 37 36 34 32 32 32 32 33 35 35 33 32 32 32 33 34 35 34 34 34 36 37 38 39 40 42 43 44 46 47 49 50 51 53 54 55 56 57 58 58 58 59 60 61 62 63 64 66 67 68 68 69 68 68 68 68 68 67 66 64 61 58 56 54 53 51 49 48 47 47
52 51 49 47 43 39 36 35 33 32 30 29 28 27 27 26 25 23 23 25 26 27 28 29 29 28 29 30 31 33 34 33 32 34 35 37 38 39 40 41 42 43 44 45 46 47 48 49 50 51 52 53 54 56 57 59 60 62 63 63 64 64 65 65 65 65 65 64 62 61 60 58 55 53 51 50 48 48 47 46 45 45 45 46 46
43 39 36 32 29 27 26 26 24 23 22 21 21 20 20 19 19 20 21 21 23 24 24 24 24 24 27 29 30 31 32 31 32 34 35 36 37 38 39 39 40 41 42 43 44 45 46 47 48 49 50 51 52 53 55 56 58 60 60 61 61 61 60 60 59 59 57 55 53 51 50 48 46 45 44 43 42 42 42 43 43 44 45 45 45
29 26 24 23 22 23 23 21 20 19 19 18 18 17 16 17 19 21 24 25 26 24 23 23 24 25 28 30 31 31 32 32 32 32 33 34 35 35 36 36 37 38 39 41 42 44 45 47 48 49 50 51 51 52 52 53 53 54 54 54 54 54 54 54 53 52 51 49 46 45 44 42 40 39 39 39 39 40 41 42 43 44 44 44 43
22 21 21 20 21 22 23 21 20 19 17 16 17 17 18 18 20 22 25 26 25 23 24 25 26 27 28 28 28 28 29 28 29 29 30 31 31 32 33 34 35 36 38 40 42 44 46 48 49 50 51 51 51 50 50 50 50 50 50 50 50 51 50 50 49 47 45 43 41 40 39 39 38 37 37 38 39 40 41 41 41 41 41 41 41
21 21 21 21 21 23 22 20 18 18 17 17 19 20 21 22 22 22 23 22 21 22 23 24 24 24 23 23 24 24 24 23 24 25 26 27 28 29 30 32 34 36 38 41 43 45 47 48 49 50 51 51 50 50 49 49 49 48 47 46 46 45 44 44 42 40 37 36 35 36 36 37 37 37 37 37 38 38 38 38 38 38 38 38 38
20 20 21 21 21 22 21 19 17 18 19 19 20 21 22 23 22 22 22 21 21 21 20 19 19 19 19 19 19 19 18 19 20 22 23 25 26 28 29 32 35 37 40 42 44 45 46 47 47 48 49 49 49 47 46 44 42 40 39 38 37 37 36 35 33 31 30 31 32 33 34 35 34 34 34 34 33 34 34 34 34 34 35 36 36
19 20 20 20 21 21 21 20 19 19 20 19 18 19 20 21 21 20 19 18 18 17 15 14 14 14 15 14 14 14 15 17 19 20 22 23 25 28 30 33 35 37 39 40 41 42 43 44 45 46 46 45 43 41 38 36 34 32 31 30 30 30 29 28 27 27 28 30 31 32 32 31 31 30 30 29 30 30 31 32 32 33 34 35 36
19 20 20 21 23 23 23 22 20 20 20 20 18 17 18 20 20 18 16 15 15 14 12 12 12 11 11 11 12 13 15 16 18 20 23 25 27 29 31 32 34 35 36 37 38 40 41 41 42 42 40 38 36 34 31 29 27 25 24 24 24 24 24 25 26 28 29 29 28 28 27 27 27 28 28 28 28 29 30 31 32 33 34 34 34
20 20 21 22 22 22 23 23 21 19 19 19 19 18 19 20 18 16 15 15 15 13 11 10 10 10 10 11 12 13 14 17 20 23 25 26 27 27 29 30 32 33 35 36 37 38 38 38 37 36 35 34 31 27 24 22 20 19 19 19 20 21 22 24 26 26 25 24 23 24 25 26 27 28 28 28 28 29 30 31 31 31 30 30 30
21 22 22 22 22 22 23 23 21 19 19 20 20 18 19 19 18 17 17 15 13 11 9 9 9 10 10 10 10 12 15 18 21 23 23 23 24 25 27 29 30 32 34 35 37 37 37 36 34 33 32 29 24 19 17 16 16 16 16 17 18 19 20 21 20 20 19 20 21 23 24 25 26 27 27 27 26 26 26 26 26 26 26 27 27
20 20 20 20 21 22 22 22 20 19 20 20 19 18 19 20 19 18 15 13 10 9 9 9 9 8 7 8 10 13 16 18 19 19 20 21 23 25 27 28 29 31 32 34 36 37 36 34 32 31 28 23 18 14 13 13 13 13 14 15 16 16 15 15 14 15 16 18 20 22 23 23 24 23 22 21 20 20 20 21 21 22 24 25 25
17 17 17 16 17 18 18 18 18 19 19 19 20 20 20 18 16 14 12 10 10 10 9 8 6 5 5 8 10 12 13 14 15 17 19 21 23 25 26 27 29 30 32 34 36 36 34 32 30 29 24 19 14 11 10 11 11 12 13 13 12 11 10 10 11 14 15 17 19 21 22 20 18 16 14 14 14 14 16 16 16 16 18 20 21
18 17 16 14 14 15 16 17 19 20 21 21 20 18 16 14 13 12 11 11 10 9 7 5 3 3 6 8 8 9 10 12 14 16 18 20 22 24 26 27 28 30 32 34 36 36 34 31 29 26 20 15 11 10 10 11 12 12 12 10 8 8 8 9 12 14 15 17 19 19 16 13 10 9 9 10 11 12 13 11 7 6 8 10 11
18 17 16 16 16 17 19 20 21 22 21 19 17 15 14 13 13 12 12 11 10 7 5 3 3 4 5 5 6 8 10 13 15 17 19 21 23 24 26 28 29 31 33 35 37 37 35 32 29 25 18 12 10 10 11 12 12 12 11 8 7 6 7 10 12 13 15 16 15 12 8 6 6 6 7 7 8 9 9 7 4 3 4 6 9
18 18 18 18 19 20 21 21 21 20 18 16 15 15 14 14 13 13 12 10 8 5 4 3 4 4 3 4 6 8 11 14 17 19 20 22 23 25 26 28 29 31 33 35 37 37 36 34 31 25 17 12 10 10 11 12 11 10 8 7 5 5 8 10 10 12 14 13 10 6 4 3 3 4 4 4 4 5 7 7 5 6 8 10 13
17 18 19 20 21 21 20 19 18 17 17 16 16 15 15 15 15 13 11 8 6 5 5 5 4 2 2 4 7 9 12 15 18 20 22 23 24 25 27 28 29 31 33 35 37 37 37 35 32 26 19 12 9 10 11 10 8 6 4 4 4 5 7 7 9 10 10 7 3 3 2 1 1 2 1 0 1 4 5 6 6 8 11 13 14
15 16 17 18 18 18 17 16 16 16 16 16 16 16 17 16 14 12 10 8 7 6 6 5 3 2 3 5 7 10 12 15 18 21 23 24 25 26 27 28 29 31 33 34 36 37 37 36 33 27 20 12 8 9 11 10 6 3 3 2 2 4 5 5 7 7 3 3 5 5 4 3 4 4 4 5 6 5 6 6 7 11 14 16 16
12 12 13 14 14 15 15 15 16 16 17 18 18 17 17 15 13 11 10 9 8 7 7 5 4 3 4 5 8 10 12 15 18 21 23 25 26 27 28 29 30 31 33 34 36 37 38 37 34 29 22 14 8 7 9 10 6 3 5 2 2 3 3 4 5 1 5 9 9 8 8 8 7 7 9 10 10 9 11 13 14 14 16 17 18
9 10 12 12 13 14 15 16 16 17 18 18 18 17 16 14 13 11 10 9 9 9 8 6 5 4 4 6 8 10 12 14 17 20 22 25 26 28 29 30 30 31 33 34 35 37 38 37 35 32 25 16 9 7 9 10 7 3 6 5 2 2 4 4 0 7 12 13 12 11 11 10 8 9 11 12 11 12 15 18 19 17 16 15 16
8 9 11 12 13 14 15 16 16 17 17 17 17 16 15 14 12 11 11 10 10 9 8 7 6 6 5 6 8 10 12 14 16 19 21 24 26 28 29 30 30 32 33 34 35 36 37 37 37 34 28 20 12 8 8 8 5 3 6 6 4 2 2 1 6 12 14 13 13 12 10 9 9 10 11 12 12 12 14 16 17 18 17 16 16
7 8 9 10 11 12 13 14 15 16 16 16 15 14 14 13 12 12 11 11 11 10 9 9 8 7 6 7 8 10 12 13 15 17 20 22 25 27 29 30 31 31 33 34 34 35 36 37 37 36 32 24 16 9 7 6 3 4 6 6 6 3 1 4 11 15 13 11 11 12 11 10 10 10 11 13 14 13 12 13 14 15 16 17 17
5 6 7 9 10 10 11 12 13 14 14 14 14 13 13 12 12 12 12 12 12 11 11 10 9 8 8 7 8 10 12 13 14 16 18 21 24 26 28 30 31 32 32 33 34 35 35 36 37 36 34 28 20 11 7 6 4 5 7 8 7 5 5 8 13 15 12 11 11 11 11 11 11 11 10 11 13 14 14 13 14 14 15 16 17
Wind_Direction
253 254 254 255 256 256 258 259 259 258 257 257 257 257 259 262 263 265 266 267 267 266 265 268 270 272 272 271 269 266 263 260 258 257 256 257 258 259 261 263 265 266 265 264 261 260 259 260 260 261 262 263 263 262 262 261 261 261 261 260 260 260 260 259 259 260 263 263 263 264 264 264 265 266 267 267 267 267 268 268 268 269 270 271 272
246 250 254 258 260 259 259 260 261 262 262 260 259 260 262 264 265 266 266 265 264 262 260 262 268 274 276 276 275 272 270 268 266 263 262 261 260 260 260 261 262 264 265 266 267 266 265 264 264 265 265 265 266 266 266 266 265 265 265 265 264 264 265 265 264 263 265 266 265 265 265 265 265 265 266 267 268 268 269 268 268 268 268 269 270
244 249 251 254 257 258 257 257 258 259 259 259 259 260 262 263 265 267 267 265 263 259 256 258 263 268 271 271 271 272 273 273 272 269 268 267 267 267 267 266 265 264 264 264 264 266 266 266 267 267 268 268 268 269 269 269 268 268 268 268 267 267 266 266 266 266 266 267 268 268 268 268 268 267 267 267 267 268 268 269 269 269 269 269 269
258 260 257 255 255 257 256 254 255 256 257 258 260 261 263 264 266 267 267 266 263 259 256 257 259 261 263 264 265 269 272 275 276 275 272 271 271 272 272 272 272 271 270 268 267 266 265 265 266 266 267 268 269 269 270 270 270 269 268 268 268 268 267 266 266 266 266 266 267 268 269 269 269 269 269 268 268 268 268 269 269 269 269 269 270
266 262 257 255 256 258 255 254 256 257 257 259 260 261 262 263 265 268 268 267 265 263 262 260 257 256 258 261 263 265 267 269 272 273 274 273 273 272 272 272 272 272 273 273 273 272 270 268 267 266 266 266 266 267 268 269 269 270 269 269 268 268 268 267 266 264 264 264 265 266 268 269 269 269 269 269 269 269 269 269 269 270 270 270 270
265 259 256 257 259 260 258 258 259 258 257 258 260 261 262 262 264 266 268 269 268 267 266 265 261 259 260 264 267 265 263 265 268 270 270 272 272 272 272 271 270 270 270 271 272 274 275 274 273 271 269 267 266 266 266 266 267 267 267 268 267 267 266 265 264 262 261 260 261 262 263 264 266 267 268 269 269 269 270 270 270 271 271 271 271
260 259 260 262 263 262 260 260 260 259 258 259 259 259 260 261 263 265 267 269 270 270 269 267 267 268 268 270 273 269 263 264 271 273 271 271 270 270 271 272 272 270 269 268 268 270 272 274 275 275 273 271 269 267 266 266 266 266 266 266 265 265 263 261 259 258 257 257 258 259 258 259 261 262 265 267 269 269 270 271 271 272 272 272 272
260 262 263 263 263 262 261 260 260 260 260 259 258 258 259 262 264 265 266 269 271 272 271 270 271 273 273 273 275 274 270 269 273 275 274 273 272 269 269 272 276 276 274 271 269 269 271 272 274 274 273 271 270 268 268 267 267 267 267 266 265 264 262 259 256 253 253 253 255 257 258 257 257 258 260 264 266 268 270 271 272 273 274 275 275
259 261 261 260 259 259 259 258 260 262 262 261 259 258 259 261 263 265 266 268 269 270 272 272 272 273 274 274 276 277 276 275 275 275 275 275 276 275 274 275 277 277 276 274 272 271 272 273 274 274 273 271 269 267 267 267 268 268 268 267 265 264 262 259 255 253 252 252 253 255 257 258 258 258 259 262 263 265 267 270 272 274 276 277 278
253 255 256 257 257 256 255 255 256 258 260 260 260 259 259 260 262 264 265 266 267 269 271 271 271 272 273 273 275 277 277 277 276 276 276 277 278 279 277 276 276 275 275 276 276 275 274 272 272 272 272 271 269 267 265 265 266 267 267 267 265 263 260 257 256 255 255 255 255 255 256 258 261 262 263 264 264 265 266 269 271 274 276 278 279
254 255 256 257 258 259 259 258 258 258 259 260 261 261 260 260 260 262 262 264 266 269 271 271 271 272 273 273 275 276 277 277 276 276 277 278 279 280 277 274 274 274 275 275 276 278 277 274 271 270 270 269 269 267 266 265 265 266 266 266 265 264 261 257 256 256 257 258 258 259 259 260 262 264 265 266 267 268 268 269 271 273 275 278 280
257 258 259 259 260 261 262 262 261 262 262 263 264 264 264 263 262 263 263 265 267 269 271 272 273 274 275 275 275 276 276 277 278 278 277 277 278 278 277 275 275 276 276 275 274 275 276 274 270 268 267 267 267 267 267 266 267 267 267 266 265 264 262 260 257 257 258 259 260 261 261 262 263 264 265 266 267 269 270 271 272 273 275 277 280
258 259 260 261 262 262 262 262 262 262 263 264 264 265 265 265 265 265 266 267 268 270 271 272 273 274 275 275 276 277 277 278 279 280 279 278 277 277 276 275 276 276 278 277 274 272 272 272 269 266 265 265 266 267 268 268 268 268 268 268 267 266 264 262 261 260 260 261 261 261 262 263 263 264 265 265 266 268 271 273 274 275 276 277 279
259 260 261 262 263 263 263 263 262 262 262 263 263 264 265 265 266 266 267 268 269 270 271 272 272 273 273 275 276 277 278 278 278 279 279 279 278 277 276 275 274 273 275 277 276 272 270 269 268 266 264 263 265 269 269 268 269 269 269 268 268 268 267 265 264 264 264 264 264 263 262 263 264 264 265 266 267 268 269 271 274 276 277 279 281
260 260 261 262 263 263 264 264 263 263 263 263 263 264 264 265 266 266 267 268 268 269 270 271 272 273 274 275 276 277 277 277 276 277 278 279 279 278 276 275 273 271 271 272 273 273 272 269 267 265 262 261 266 270 270 268 267 268 267 267 267 268 268 268 268 268 269 269 268 267 265 264 264 264 265 266 268 269 270 270 272 274 276 279 281
260 260 260 261 261 262 263 263 264 264 264 264 264 265 265 265 265 266 266 266 267 268 269 270 271 273 274 275 276 276 276 275 276 277 277 277 277 277 276 275 274 272 269 268 267 268 270 270 269 265 261 261 267 271 270 268 267 266 266 266 266 266 267 268 269 270 271 271 271 271 269 267 266 266 266 268 269 270 271 271 272 273 275 277 280
262 261 261 261 261 262 262 262 263 263 264 265 265 265 265 265 265 265 265 265 265 266 267 269 270 271 272 273 274 275 275 276 277 277 277 276 275 275 275 275 273 272 270 268 267 267 267 268 270 268 265 266 269 270 269 269 268 267 266 266 266 266 266 267 269 269 270 271 272 272 272 271 269 268 267 268 269 270 271 272 273 274 275 277 279
262 262 262 262 262 262 262 262 262 263 263 264 264 264 265 265 264 264 264 264 264 265 266 266 267 268 269 270 271 272 274 276 276 276 275 274 274 274 274 273 272 271 270 269 269 269 268 268 269 270 269 269 271 271 271 270 269 269 269 267 266 266 267 267 268 269 269 270 270 272 273 273 273 271 269 268 269 270 271 272 273 274 276 278 280
263 263 263 263 262 262 262 262 262 262 262 262 263 263 263 263 264 263 263 263 263 263 264 265 266 266 267 268 269 271 272 273 273 272 272 273 273 273 273 273 272 271 271 270 270 270 270 269 269 269 269 269 270 271 271 271 270 271 272 270 268 267 267 268 269 269 269 269 269 270 271 273 273 272 270 270 270 270 272 273 274 275 276 278 278
263 263 263 263 263 263 263 263 262 262 262 262 262 262 262 263 263 263 263 263 263 263 264 264 265 266 267 268 269 269 269 269 268 267 269 272 274 275 274 274 273 272 272 271 271 270 270 269 268 267 267 267 267 269 270 271 271 271 272 271 268 267 267 268 269 269 270 270 269 269 270 270 271 271 270 270 270 271 272 273 275 276 277 278 277
263 263 262 262 262 262 262 263 263 263 263 263 262 262 263 263 263 263 263 263 263 263 264 264 264 265 266 267 267 266 264 264 265 268 271 274 275 274 274 273 273 272 272 271 271 270 269 268 266 265 264 264 265 266 268 269 269 269 269 269 268 268 269 269 269 270 270 270 270 269 269 269 270 270 270 271 271 272 272 273 274 276 277 277 277
264 263 262 262 262 262 262 262 262 262 262 262 262 262 262 263 263 263 263 263 263 263 263 263 264 264 265 265 265 264 263 263 265 269 271 272 272 273 273 272 271 271 271 270 268 266 265 263 262 262 262 262 264 265 266 267 267 267 268 269 270 270 271 271 271 271 271 270 270 270 270 270 270 270 271 271 271 271 272 273 274 275 276 276 276
265 264 263 262 261 261 261 261 261 261 260 260 260 260 261 262 262 262 263 263 263 262 262 263 263 264 264 265 265 265 265 265 267 268 269 270 271 270 268 267 267 269 269 268 266 263 261 260 260 261 262 262 263 264 265 266 266 267 269 270 270 271 271 272 272 272 271 271 272 272 273 272 271 270 270 270 270 271 273 274 275 275 275 275 275
265 264 263 261 260 261 262 263 263 262 261 260 260 260 260 260 260 261 261 261 261 262 262 263 263 263 264 265 265 265 265 267 268 268 269 269 267 264 263 264 266 269 270 270 269 267 265 264 265 265 265 266 266 266 267 267 267 268 269 270 270 271 271 272 272 273 273 273 274 274 273 271 270 269 269 270 271 272 274 274 274 274 274 274 275
266 265 264 263 262 263 264 264 264 264 263 262 261 261 260 259 259 259 260 260 261 261 262 262 261 262 263 264 264 265 265 267 268 267 265 263 263 263 264 266 268 269 270 271 271 271 270 269 269 269 269 270 270 270 271 271 270 270 270 270 270 271 272 272 272 272 272 273 273 272 271 270 270 270 271 272 273 274 274 274 274 274 274 274 274
267 267 266 266 266 265 265 266 266 265 265 264 263 262 262 261 261 261 260 260 260 261 261 261 261 262 262 263 264 264 264 264 263 260 258 259 263 266 267 268 268 269 270 271 272 272 272 271 271 271 271 272 272 272 272 272 271 270 269 269 270 270 270 271 271 271 271 271 271 271 271 272 272 273 273 273 273 273 273 273 274 274 274 273 272
269 268 268 268 268 267 267 267 266 266 265 265 265 264 264 264 264 263 262 261 261 260 260 260 260 260 261 262 262 260 259 257 254 252 255 263 268 271 271 271 271 272 272 271 270 270 269 269 269 269 270 271 271 271 271 271 270 269 269 269 269 269 269 270 270 269 269 270 271 272 273 273 273 273 273 273 273 274 274 274 273 272 271 270 269
270 270 269 269 268 268 268 267 266 266 266 266 265 265 265 265 264 264 263 262 260 259 258 257 257 258 258 256 252 251 253 252 249 250 259 268 272 273 272 272 272 272 272 271 271 272 272 273 273 273 273 273 273 272 272 270 270 270 270 270 269 269 269 270 269 269 270 271 272 273 273 274 274 274 274 274 274 273 272 271 270 269 268 267 267
270 269 268 268 267 267 266 265 265 264 264 263 263 263 263 263 263 262 257 252 249 249 251 252 253 253 250 245 244 250 257 256 253 255 263 269 272 274 275 276 276 277 277 278 279 280 280 280 279 278 277 276 275 274 273 272 271 272 272 272 271 271 271 270 271 271 272 273 274 275 275 275 275 274 273 272 271 269 268 267 267 267 266 266 267
268 267 266 265 264 263 260 258 258 257 256 255 256 257 257 256 254 246 237 233 234 237 241 243 243 244 245 244 247 252 255 255 256 261 266 270 273 276 278 280 282 283 284 284 284 284 284 283 282 281 280 279 278 277 275 274 273 273 274 275 275 274 273 273 274 274 275 276 276 276 275 274 273 272 270 269 267 266 266 265 265 266 267 268 269
265 263 261 259 255 249 245 244 244 243 243 244 245 244 241 237 232 226 223 226 229 231 233 235 236 240 245 246 247 249 251 256 262 267 270 273 275 278 280 282 284 285 285 286 286 286 287 286 286 285 285 284 283 281 280 278 277 276 276 277 277 276 276 276 276 276 276 277 276 275 274 273 272 271 270 268 266 265 265 265 266 268 269 270 270
258 254 250 244 237 232 232 233 232 231 234 234 231 229 229 227 224 224 225 227 228 229 233 236 238 240 242 244 246 252 257 261 266 269 272 275 278 280 283 284 286 287 288 289 290 291 291 291 291 291 290 289 287 286 284 282 281 280 279 278 278 277 277 277 276 276 277 276 276 275 274 274 273 272 269 268 266 265 266 267 269 270 271 271 270
245 241 237 233 228 227 228 227 224 225 226 221 212 211 219 225 227 227 226 224 225 229 234 235 235 236 239 244 251 256 260 263 266 271 275 278 281 284 287 289 291 293 294 295 295 295 295 295 294 293 291 290 289 287 285 284 283 281 280 279 278 277 276 276 275 276 276 275 275 274 274 274 273 271 270 269 268 268 269 270 270 270 270 269 268
238 235 233 230 228 225 223 218 213 211 209 203 202 206 213 220 223 222 218 217 223 229 231 231 233 237 243 249 254 258 261 265 270 275 279 283 286 289 292 294 296 297 298 297 296 295 294 293 292 291 290 289 288 287 285 284 283 281 280 278 276 275 273 273 273 274 275 275 275 274 273 272 271 270 269 269 269 270 270 269 269 268 267 266 264
231 229 228 223 218 213 208 201 197 195 194 196 202 208 213 216 215 211 209 214 223 227 229 232 238 244 247 251 255 260 267 273 277 281 285 288 291 294 296 298 298 298 297 296 295 295 294 293 293 291 290 289 289 288 286 285 283 281 279 276 273 271 270 270 271 273 275 276 275 273 271 270 269 269 269 269 269 269 269 268 268 267 266 265 264
217 216 211 199 190 187 188 188 189 190 191 194 202 209 211 211 209 207 210 217 222 224 230 239 243 245 247 252 259 267 274 278 281 285 288 292 296 299 300 300 299 298 297 297 297 298 298 297 296 294 293 291 291 290 288 286 283 279 276 273 271 270 268 267 268 272 276 276 274 272 272 271 270 270 270 270 271 271 271 271 270 270 270 269 267
195 193 186 176 173 176 181 186 190 193 194 198 205 210 209 206 207 212 218 221 222 227 238 244 242 242 248 257 265 270 274 280 286 292 297 299 301 301 300 300 301 301 302 303 304 304 303 302 299 297 296 295 294 293 290 285 281 278 275 272 270 269 269 268 270 274 277 276 274 274 274 273 273 273 274 274 275 275 275 275 275 274 273 271 268
167 167 167 167 171 176 182 187 190 193 197 202 206 207 205 207 214 223 229 228 228 233 238 237 234 239 247 256 265 275 285 292 296 298 299 300 301 302 304 306 308 309 310 311 311 311 309 307 304 302 301 300 300 297 291 285 281 279 277 275 273 272 271 272 273 275 276 275 275 274 274 274 274 275 276 276 276 276 276 276 275 274 272 270 266
158 161 165 168 170 174 181 187 193 197 199 201 202 204 209 217 226 231 230 228 227 228 227 226 230 238 249 263 279 290 295 295 295 297 300 303 307 310 312 314 315 316 317 317 318 318 316 313 311 309 308 307 305 299 291 286 284 283 282 280 277 274 272 271 271 272 273 275 275 275 276 277 277 277 277 276 275 274 273 273 273 273 271 268 263
161 162 167 169 173 179 187 193 198 199 196 196 202 211 217 222 224 222 218 215 214 214 218 224 231 243 263 283 291 292 293 295 299 305 310 314 317 319 319 320 321 322 323 325 326 325 322 320 318 316 315 313 309 301 294 293 293 292 290 285 279 274 268 264 266 271 276 279 280 281 282 283 281 278 276 274 272 271 271 271 272 271 268 264 260
165 164 167 171 175 182 189 194 197 198 198 203 210 214 213 211 207 201 197 198 204 210 217 224 234 259 284 288 288 291 299 308 315 318 320 322 323 323 324 325 326 328 331 333 333 331 329 327 326 323 320 318 313 303 298 297 296 295 294 287 275 261 255 260 274 284 287 287 288 289 288 286 281 278 276 274 272 271 269 267 266 265 262 258 254
177 178 181 184 186 191 194 196 198 202 205 208 209 205 198 190 184 182 187 195 202 207 211 216 237 271 279 282 292 307 319 326 328 326 325 326 326 326 328 330 332 335 338 340 340 338 335 335 334 331 326 322 315 305 301 301 298 293 289 281 259 241 252 276 290 293 292 293 293 292 290 286 283 283 281 275 269 265 259 251 247 254 256 246 230
184 187 189 191 194 198 200 200 201 203 204 203 197 188 181 176 177 183 189 193 195 195 194 198 232 257 267 286 317 333 336 337 336 333 329 328 328 329 332 334 337 340 343 344 345 344 342 342 342 340 334 328 323 316 312 310 301 287 276 260 239 240 271 292 297 296 296 296 293 288 283 279 280 279 274 265 259 253 243 225 190 147 144 152 156
186 190 193 195 197 201 202 201 200 197 194 190 183 177 176 178 182 185 186 184 181 180 182 199 221 242 273 323 341 342 342 342 342 339 335 333 332 332 334 337 340 343 346 347 349 349 348 347 347 346 342 336 332 326 320 313 301 282 260 236 230 264 289 296 299 302 300 294 283 264 249 257 272 279 275 265 249 232 221 211 191 164 152 150 150
191 195 198 200 201 202 200 197 191 185 181 179 178 177 180 183 183 181 178 174 172 178 191 203 217 247 317 338 342 342 343 345 346 342 339 338 337 337 338 339 341 344 347 349 351 353 353 351 350 350 347 340 331 326 323 317 305 283 246 218 237 282 289 289 299 306 301 283 247 204 202 244 330 341 329 306 155 170 184 191 185 173 167 161 154
190 194 195 195 194 192 188 183 179 177 177 178 180 182 183 183 180 176 173 173 178 189 199 206 219 268 319 333 338 341 343 346 346 344 342 342 342 342 342 343 344 345 347 349 352 355 357 355 354 353 352 343 327 321 321 319 307 258 208 212 278 298 293 299 313 313 288 172 141 131 121 91 66 67 78 79 86 117 145 151 151 156 157 154 148
178 182 183 183 181 179 177 176 178 180 182 184 185 185 184 181 178 176 176 179 187 198 205 212 228 264 303 323 333 337 342 345 345 344 344 345 345 345 345 346 347 348 349 349 352 356 359 358 357 357 355 349 331 313 315 320 311 232 193 198 310 317 316 323 326 307 144 133 118 105 93 82 80 90 89 78 79 103 123 126 129 137 143 145 144
167 173 178 179 178 176 177 180 184 187 188 188 188 187 185 182 180 179 183 189 197 204 211 221 237 260 290 313 325 333 338 341 343 343 344 345 346 347 348 348 349 350 350 351 353 356 359 0 0 359 357 353 341 316 312 320 317 237 196 197 228 301 326 333 66 143 136 123 107 93 82 75 82 98 101 93 93 108 120 123 127 131 135 140 144
170 177 181 182 180 181 185 188 190 192 193 193 192 189 187 185 185 188 192 198 205 211 218 228 240 257 282 303 317 327 333 336 339 342 343 345 347 348 349 349 350 351 351 353 354 356 358 1 3 2 359 357 350 331 318 322 315 235 206 207 212 243 328 24 143 142 134 120 109 101 93 85 87 100 111 115 116 119 125 128 131 134 137 141 145
171 185 190 190 189 190 194 197 198 198 198 198 197 197 195 194 194 197 202 209 214 220 227 236 244 257 275 293 308 319 325 330 336 339 341 344 346 348 348 349 351 351 352 353 355 356 358 1 4 4 2 358 354 343 326 315 287 221 213 216 211 199 126 140 148 144 135 125 119 114 110 104 99 100 113 124 128 133 139 140 140 142 145 148 151
174 187 196 200 201 203 205 207 208 208 207 206 205 206 208 208 209 211 215 220 223 228 234 240 247 257 269 285 300 311 319 325 331 336 339 342 344 345 347 349 350 351 351 353 355 356 358 0 3 4 3 1 357 348 326 302 263 217 210 213 206 179 143 149 156 151 142 136 134 128 123 120 114 109 111 120 128 135 142 146 147 148 150 152 157
Height
5715 5716 5716 5716 5716 5717 5717 5718 5718 5719 5719 5720 5720 5720 5721 5722 5722 5723 5724 5724 5724 5724 5724 5724 5724 5724 5725 5725 5725 5725 5725 5725 5726 5726 5726 5726 5726 5727 5728 5728 5729 5729 5730 5730 5731 5732 5732 5733 5734 5734 5735 5736 5737 5738 5738 5739 5740 5741 5741 5742 5743 5743 5744 5744 5745 5744 5743 5743 5744 5744 5744 5745 5745 5745 5745 5746 5747 5747 5748 5749 5749 5750 5751 5751 5751
5711 5712 5713 5714 5714 5714 5714 5714 5715 5716 5716 5717 5717 5717 5718 5718 5719 5720 5721 5721 5721 5722 5722 5722 5722 5722 5722 5722 5723 5723 5723 5723 5723 5723 5723 5723 5724 5724 5725 5726 5726 5726 5727 5727 5728 5728 5729 5729 5730 5730 5731 5732 5732 5733 5734 5735 5736 5736 5737 5737 5738 5739 5740 5740 5741 5741 5741 5740 5740 5740 5740 5741 5741 5741 5741 5742 5742 5742 5743 5743 5744 5745 5746 5747 5747
5708 5709 5709 5710 5711 5711 5711 5711 5711 5712 5713 5713 5713 5713 5714 5714 5715 5716 5717 5718 5718 5719 5719 5719 5719 5719 5719 5719 5719 5720 5720 5720 5720 5720 5720 5721 5721 5721 5722 5723 5723 5723 5724 5724 5724 5725 5725 5726 5726 5727 5727 5727 5728 5728 5729 5730 5731 5732 5732 5733 5734 5734 5735 5736 5736 5737 5737 5736 5735 5736 5736 5736 5736 5736 5737 5737 5738 5738 5738 5738 5739 5740 5740 5741 5742
5704 5705 5705 5706 5707 5707 5708 5707 5707 5707 5708 5709 5710 5710 5710 5710 5711 5712 5713 5714 5715 5715 5716 5717 5717 5717 5716 5716 5716 5716 5717 5717 5717 5717 5717 5718 5718 5718 5718 5719 5719 5720 5720 5721 5721 5721 5722 5722 5722 5723 5723 5723 5724 5724 5725 5725 5726 5727 5727 5728 5729 5729 5730 5731 5731 5732 5732 5732 5731 5731 5731 5731 5731 5731 5732 5732 5732 5733 5733 5733 5734 5734 5735 5735 5736
5699 5700 5701 5701 5702 5704 5704 5704 5704 5704 5704 5705 5706 5706 5706 5706 5707 5708 5709 5710 5711 5712 5713 5713 5713 5713 5713 5713 5713 5713 5714 5714 5714 5714 5714 5714 5715 5715 5715 5715 5715 5715 5716 5717 5717 5717 5718 5718 5718 5719 5719 5719 5719 5720 5720 5721 5721 5721 5722 5723 5724 5724 5724 5725 5725 5726 5727 5727 5727 5726 5726 5726 5726 5726 5726 5726 5727 5727 5728 5728 5728 5729 5729 5729 5730
5694 5695 5697 5697 5698 5699 5699 5700 5700 5700 5701 5701 5702 5702 5702 5702 5702 5703 5704 5705 5707 5708 5708 5708 5709 5709 5709 5710 5710 5710 5710 5710 5710 5711 5710 5711 5711 5711 5711 5711 5711 5712 5712 5712 5713 5713 5714 5714 5714 5714 5714 5714 5715 5715 5715 5715 5716 5716 5717 5718 5718 5719 5720 5720 5720 5720 5721 5721 5722 5722 5721 5721 5721 5720 5720 5721 5721 5722 5722 5723 5723 5723 5723 5724 5724
5690 5691 5691 5692 5693 5694 5694 5695 5695 5696 5697 5697 5697 5698 5698 5698 5698 5698 5699 5700 5701 5703 5703 5703 5704 5704 5704 5705 5706 5706 5707 5707 5707 5707 5706 5707 5707 5707 5707 5707 5707 5708 5708 5709 5709 5709 5710 5710 5710 5710 5710 5710 5710 5710 5710 5710 5710 5710 5711 5711 5712 5713 5714 5714 5715 5715 5715 5716 5716 5716 5716 5717 5717 5716 5715 5715 5716 5716 5717 5717 5718 5718 5718 5718 5719
5685 5686 5686 5686 5687 5688 5689 5689 5690 5690 5691 5692 5693 5693 5693 5693 5693 5694 5694 5695 5696 5698 5698 5699 5699 5699 5700 5700 5701 5702 5702 5703 5703 5703 5702 5702 5703 5703 5703 5703 5703 5703 5704 5704 5705 5705 5705 5705 5705 5705 5705 5705 5705 5705 5705 5705 5705 5705 5705 5705 5706 5706 5707 5708 5709 5710 5710 5711 5711 5711 5711 5712 5712 5712 5711 5711 5711 5711 5711 5712 5712 5712 5712 5713 5713
5679 5680 5680 5681 5682 5682 5683 5684 5684 5685 5685 5687 5688 5688 5688 5688 5688 5689 5690 5690 5691 5692 5693 5693 5694 5694 5694 5695 5696 5696 5696 5697 5698 5698 5698 5698 5698 5699 5699 5699 5699 5698 5699 5699 5699 5700 5700 5700 5700 5700 5700 5700 5700 5700 5700 5700 5700 5700 5700 5700 5700 5700 5701 5702 5703 5704 5705 5706 5706 5706 5706 5706 5707 5707 5707 5707 5707 5707 5707 5707 5707 5707 5707 5707 5707
5673 5674 5674 5675 5676 5676 5677 5678 5679 5679 5680 5681 5682 5683 5683 5683 5684 5684 5685 5685 5686 5687 5687 5688 5689 5689 5689 5689 5690 5690 5691 5692 5692 5692 5692 5692 5693 5693 5694 5694 5694 5693 5693 5693 5693 5694 5694 5694 5694 5694 5694 5694 5695 5695 5695 5695 5695 5695 5695 5695 5694 5694 5695 5696 5697 5698 5699 5700 5701 5701 5702 5702 5701 5701 5702 5702 5702 5702 5702 5702 5702 5702 5702 5702 5702
5667 5668 5668 5669 5669 5670 5671 5672 5672 5673 5674 5675 5676 5677 5677 5678 5679 5679 5680 5681 5681 5681 5682 5682 5683 5683 5682 5682 5684 5684 5685 5685 5686 5686 5686 5686 5686 5687 5688 5689 5689 5688 5688 5688 5688 5688 5687 5687 5687 5687 5687 5688 5688 5689 5689 5689 5690 5690 5690 5690 5689 5689 5690 5690 5691 5691 5692 5694 5695 5696 5696 5697 5696 5695 5696 5696 5696 5696 5696 5696 5697 5696 5696 5696 5696
5660 5661 5662 5662 5663 5664 5664 5665 5666 5667 5668 5669 5670 5671 5672 5673 5673 5674 5675 5675 5675 5676 5676 5676 5676 5676 5676 5676 5677 5678 5678 5679 5679 5679 5680 5680 5680 5681 5682 5683 5683 5683 5683 5682 5682 5681 5681 5681 5680 5680 5681 5681 5681 5682 5683 5683 5684 5684 5684 5684 5684 5684 5684 5684 5685 5685 5686 5687 5688 5690 5690 5690 5690 5690 5689 5690 5689 5689 5689 5689 5689 5690 5690 5690 5690
5653 5654 5654 5655 5656 5657 5658 5659 5660 5661 5662 5663 5664 5665 5666 5666 5667 5668 5668 5668 5669 5669 5669 5669 5670 5670 5670 5670 5671 5671 5672 5671 5672 5672 5673 5673 5674 5674 5675 5676 5676 5676 5676 5676 5675 5675 5674 5674 5674 5674 5674 5675 5675 5675 5675 5676 5677 5678 5678 5678 5678 5678 5678 5678 5679 5679 5679 5680 5681 5683 5683 5683 5683 5683 5682 5682 5683 5683 5682 5681 5681 5682 5682 5683 5683
5646 5646 5646 5647 5648 5650 5651 5652 5653 5654 5655 5656 5657 5658 5659 5660 5660 5661 5661 5662 5662 5662 5662 5663 5663 5664 5664 5664 5664 5665 5665 5664 5664 5665 5665 5666 5667 5667 5668 5668 5669 5669 5669 5669 5668 5668 5668 5667 5667 5667 5667 5668 5668 5668 5668 5669 5669 5670 5671 5671 5671 5671 5671 5672 5672 5672 5673 5673 5674 5675 5675 5675 5675 5675 5675 5675 5675 5675 5676 5675 5674 5674 5674 5675 5675
5638 5638 5639 5640 5641 5642 5643 5644 5645 5646 5647 5648 5649 5650 5651 5652 5653 5654 5654 5654 5655 5655 5656 5656 5656 5656 5656 5656 5657 5657 5657 5657 5658 5658 5659 5659 5660 5660 5660 5661 5661 5662 5662 5662 5662 5661 5661 5661 5660 5660 5661 5661 5662 5661 5661 5661 5662 5662 5663 5663 5664 5664 5664 5665 5664 5664 5664 5664 5665 5666 5667 5667 5667 5667 5667 5666 5666 5667 5667 5667 5667 5666 5666 5667 5667
5629 5630 5631 5632 5633 5634 5635 5636 5637 5638 5639 5640 5641 5642 5643 5644 5645 5646 5646 5647 5648 5648 5648 5648 5648 5648 5649 5649 5649 5650 5650 5650 5651 5652 5652 5652 5652 5653 5653 5653 5654 5654 5654 5654 5654 5654 5654 5654 5653 5653 5654 5654 5654 5654 5653 5653 5653 5654 5655 5655 5656 5656 5657 5657 5656 5656 5656 5656 5657 5657 5657 5658 5658 5658 5658 5658 5658 5657 5657 5658 5658 5658 5658 5659 5659
5621 5622 5623 5625 5626 5627 5627 5628 5629 5630 5631 5632 5633 5633 5635 5636 5637 5638 5639 5639 5640 5641 5641 5641 5641 5641 5641 5642 5642 5642 5642 5643 5644 5645 5645 5645 5645 5646 5646 5646 5646 5646 5646 5646 5646 5647 5647 5647 5647 5647 5647 5647 5647 5647 5646 5645 5646 5646 5647 5647 5648 5648 5649 5648 5648 5648 5647 5648 5648 5648 5648 5649 5649 5650 5650 5649 5649 5648 5647 5649 5648 5647 5648 5649 5649
5613 5614 5616 5617 5618 5619 5619 5620 5621 5622 5623 5624 5624 5625 5626 5627 5629 5629 5630 5632 5633 5633 5633 5634 5634 5635 5635 5635 5635 5636 5636 5637 5637 5637 5636 5637 5638 5639 5639 5638 5638 5638 5638 5638 5638 5639 5639 5640 5640 5640 5640 5640 5640 5639 5638 5638 5639 5639 5639 5639 5640 5640 5640 5639 5639 5640 5640 5640 5640 5639 5639 5639 5639 5640 5640 5640 5639 5638 5637 5639 5638 5636 5638 5639 5638
5605 5607 5608 5609 5610 5611 5611 5612 5613 5614 5615 5616 5616 5617 5618 5619 5620 5621 5622 5623 5625 5625 5625 5626 5626 5627 5627 5627 5628 5630 5630 5630 5629 5629 5629 5630 5631 5631 5631 5630 5630 5630 5630 5630 5631 5631 5631 5631 5631 5632 5632 5632 5632 5631 5630 5630 5631 5631 5631 5631 5632 5631 5631 5630 5631 5631 5631 5631 5631 5631 5630 5630 5629 5630 5629 5629 5629 5627 5627 5627 5626 5626 5628 5628 5627
5597 5599 5600 5601 5602 5603 5603 5604 5605 5606 5607 5608 5608 5609 5610 5611 5612 5613 5614 5615 5616 5617 5617 5618 5618 5619 5619 5620 5622 5623 5623 5622 5622 5622 5623 5624 5624 5625 5624 5623 5622 5622 5623 5623 5623 5623 5623 5622 5622 5623 5624 5624 5623 5622 5623 5623 5622 5623 5623 5624 5623 5623 5622 5623 5623 5623 5622 5623 5622 5622 5621 5621 5620 5620 5620 5619 5619 5618 5617 5616 5615 5614 5615 5616 5616
5590 5591 5592 5593 5594 5595 5595 5596 5597 5598 5599 5599 5600 5601 5602 5603 5604 5605 5606 5607 5608 5609 5609 5610 5611 5611 5612 5614 5615 5616 5616 5615 5615 5616 5617 5617 5617 5617 5616 5616 5616 5616 5616 5616 5615 5615 5615 5614 5614 5615 5616 5616 5615 5614 5615 5614 5614 5615 5615 5615 5615 5615 5615 5615 5615 5614 5614 5614 5613 5612 5612 5612 5611 5611 5610 5609 5608 5607 5607 5606 5605 5604 5604 5604 5604
5582 5583 5584 5585 5586 5586 5587 5588 5589 5590 5590 5591 5592 5593 5594 5595 5596 5597 5598 5599 5600 5601 5601 5602 5603 5605 5606 5606 5607 5608 5609 5608 5609 5610 5610 5610 5610 5610 5610 5610 5610 5609 5609 5609 5608 5608 5608 5607 5607 5607 5607 5607 5607 5607 5607 5606 5606 5607 5607 5607 5607 5606 5606 5606 5606 5606 5605 5605 5604 5604 5603 5602 5602 5601 5599 5598 5597 5596 5596 5595 5594 5594 5594 5594 5593
5574 5575 5576 5577 5578 5578 5578 5579 5580 5581 5582 5583 5584 5585 5586 5587 5588 5589 5590 5590 5592 5593 5594 5595 5597 5598 5599 5599 5600 5601 5602 5602 5603 5603 5603 5604 5604 5604 5604 5604 5603 5603 5603 5603 5603 5602 5602 5601 5600 5600 5600 5600 5599 5599 5599 5599 5599 5598 5598 5598 5598 5598 5598 5598 5598 5597 5596 5596 5595 5595 5594 5592 5591 5590 5589 5587 5586 5585 5585 5585 5584 5583 5583 5583 5582
5566 5567 5567 5569 5570 5570 5570 5571 5572 5573 5574 5575 5576 5577 5579 5579 5580 5581 5582 5582 5583 5585 5587 5589 5590 5591 5592 5593 5594 5594 5595 5596 5597 5597 5597 5597 5598 5598 5598 5598 5597 5597 5597 5597 5596 5596 5596 5595 5594 5594 5593 5593 5592 5592 5591 5591 5591 5590 5590 5590 5590 5589 5589 5589 5588 5587 5587 5586 5586 5585 5584 5582 5580 5579 5578 5576 5576 5575 5575 5574 5573 5572 5571 5571 5571
5558 5559 5559 5560 5561 5562 5562 5563 5564 5565 5566 5567 5568 5569 5570 5571 5572 5573 5574 5575 5576 5578 5580 5582 5583 5584 5585 5586 5587 5588 5589 5590 5590 5590 5591 5591 5592 5592 5592 5592 5591 5591 5590 5590 5589 5589 5588 5587 5587 5586 5585 5585 5584 5584 5583 5582 5582 5582 5581 5581 5580 5580 5579 5579 5578 5577 5577 5576 5575 5574 5572 5570 5569 5568 5567 5566 5566 5565 5564 5563 5562 5561 5560 5559 5559
5549 5550 5550 5551 5552 5553 5554 5555 5555 5556 5557 5559 5559 5560 5561 5563 5563 5565 5566 5567 5569 5571 5573 5574 5576 5577 5578 5579 5581 5582 5582 5583 5584 5584 5585 5586 5587 5586 5586 5585 5585 5584 5583 5583 5582 5581 5580 5579 5578 5578 5577 5576 5575 5575 5574 5573 5572 5572 5571 5570 5570 5569 5568 5568 5567 5567 5566 5565 5563 5562 5561 5560 5559 5558 5557 5556 5555 5554 5553 5551 5551 5550 5549 5548 5548
5540 5541 5541 5542 5542 5543 5545 5546 5546 5547 5548 5549 5550 5552 5553 5554 5555 5557 5558 5560 5562 5564 5566 5567 5569 5570 5572 5573 5575 5576 5576 5577 5578 5579 5580 5581 5581 5581 5580 5579 5578 5578 5577 5576 5575 5574 5573 5572 5570 5570 5569 5568 5567 5566 5565 5564 5563 5562 5561 5560 5559 5559 5558 5557 5557 5556 5555 5554 5553 5552 5551 5549 5548 5547 5545 5545 5544 5543 5541 5539 5539 5539 5538 5538 5538
5531 5532 5532 5532 5533 5534 5536 5536 5537 5538 5540 5541 5542 5544 5545 5546 5547 5549 5551 5553 5555 5557 5559 5560 5562 5564 5566 5568 5569 5570 5571 5572 5573 5574 5575 5575 5575 5575 5574 5573 5572 5571 5570 5569 5567 5566 5565 5564 5563 5562 5561 5560 5559 5557 5556 5555 5554 5553 5552 5551 5550 5549 5548 5547 5546 5545 5544 5543 5543 5542 5540 5538 5537 5535 5534 5533 5532 5531 5529 5529 5529 5529 5529 5529 5530
5523 5523 5523 5523 5524 5526 5527 5528 5529 5530 5532 5533 5535 5537 5538 5539 5541 5544 5546 5548 5550 5551 5553 5555 5557 5559 5561 5562 5564 5565 5567 5568 5569 5570 5570 5570 5570 5569 5568 5567 5566 5565 5563 5562 5561 5560 5558 5557 5555 5553 5552 5551 5550 5548 5547 5546 5545 5543 5542 5541 5540 5539 5538 5537 5536 5535 5534 5533 5533 5531 5529 5527 5525 5524 5523 5522 5522 5521 5520 5520 5520 5520 5520 5521 5522
5515 5515 5515 5516 5518 5519 5520 5521 5522 5524 5526 5528 5530 5532 5533 5535 5536 5539 5541 5544 5546 5547 5548 5550 5553 5554 5556 5558 5560 5561 5562 5564 5565 5565 5566 5565 5564 5563 5562 5561 5560 5559 5557 5555 5554 5552 5551 5549 5547 5545 5543 5542 5540 5539 5537 5536 5535 5534 5533 5531 5530 5530 5528 5527 5526 5525 5524 5523 5522 5521 5519 5517 5515 5514 5513 5513 5513 5512 5512 5512 5512 5512 5513 5513 5513
5507 5508 5509 5510 5512 5514 5514 5516 5518 5520 5522 5525 5526 5528 5529 5531 5533 5536 5538 5541 5543 5544 5545 5547 5549 5551 5553 5555 5556 5558 5559 5560 5560 5560 5560 5560 5559 5558 5557 5556 5554 5553 5551 5549 5547 5545 5543 5541 5539 5537 5535 5533 5531 5530 5528 5527 5526 5524 5523 5522 5520 5519 5518 5517 5516 5515 5514 5514 5512 5511 5509 5508 5507 5505 5505 5505 5505 5504 5505 5505 5505 5505 5504 5504 5504
5501 5503 5504 5506 5508 5510 5511 5513 5515 5517 5519 5521 5523 5525 5527 5529 5531 5533 5535 5538 5540 5541 5543 5545 5547 5549 5550 5552 5553 5554 5555 5556 5556 5556 5556 5556 5555 5554 5553 5551 5549 5547 5545 5543 5541 5538 5536 5534 5531 5529 5527 5525 5523 5521 5519 5517 5516 5515 5514 5512 5511 5509 5508 5507 5506 5505 5505 5504 5503 5502 5501 5500 5499 5498 5498 5498 5498 5497 5497 5497 5497 5497 5496 5496 5496
5497 5499 5501 5503 5505 5506 5508 5510 5512 5514 5516 5519 5521 5523 5525 5527 5529 5531 5533 5535 5537 5538 5540 5543 5545 5546 5547 5549 5550 5551 5551 5552 5552 5552 5552 5551 5550 5549 5548 5546 5544 5542 5539 5537 5534 5532 5529 5526 5524 5521 5519 5516 5514 5513 5510 5508 5507 5505 5504 5503 5501 5500 5499 5498 5497 5497 5497 5496 5495 5494 5493 5492 5492 5491 5491 5491 5490 5490 5490 5490 5489 5489 5489 5489 5489
5493 5495 5497 5499 5501 5503 5506 5508 5510 5512 5515 5517 5520 5522 5524 5525 5527 5529 5531 5533 5535 5537 5539 5541 5542 5543 5544 5546 5547 5548 5548 5548 5548 5548 5548 5547 5546 5544 5543 5541 5539 5536 5534 5531 5528 5525 5523 5520 5517 5514 5511 5509 5506 5504 5502 5500 5498 5496 5495 5494 5492 5491 5491 5490 5490 5490 5489 5489 5488 5487 5486 5485 5485 5485 5484 5484 5484 5483 5483 5483 5482 5482 5482 5482 5482
5490 5492 5494 5496 5498 5501 5503 5506 5508 5510 5513 5516 5518 5520 5522 5523 5525 5528 5530 5532 5534 5535 5537 5538 5539 5540 5542 5543 5544 5544 5544 5545 5545 5544 5544 5543 5542 5540 5538 5536 5534 5531 5529 5526 5523 5520 5517 5513 5510 5507 5504 5501 5498 5496 5493 5491 5489 5488 5486 5485 5484 5484 5484 5484 5484 5484 5483 5483 5482 5481 5480 5479 5479 5478 5478 5478 5477 5477 5477 5476 5476 5476 5476 5475 5475
5487 5489 5491 5493 5495 5499 5502 5504 5507 5509 5512 5514 5517 5518 5520 5522 5524 5526 5528 5530 5532 5533 5535 5536 5537 5538 5539 5540 5541 5541 5542 5542 5542 5541 5540 5539 5538 5536 5534 5532 5530 5527 5524 5521 5518 5515 5511 5507 5503 5500 5496 5493 5490 5488 5486 5484 5482 5480 5479 5478 5478 5477 5478 5478 5478 5478 5478 5477 5476 5475 5474 5474 5473 5473 5472 5472 5471 5471 5470 5470 5470 5469 5469 5468 5468
5485 5488 5490 5492 5494 5497 5500 5503 5506 5508 5510 5513 5515 5517 5518 5520 5523 5525 5527 5529 5530 5531 5533 5534 5535 5536 5537 5538 5538 5539 5539 5539 5538 5538 5536 5535 5534 5532 5531 5529 5526 5523 5520 5517 5513 5510 5505 5501 5496 5493 5489 5486 5483 5481 5479 5477 5475 5474 5473 5473 5472 5473 5473 5474 5474 5474 5473 5472 5471 5471 5470 5469 5468 5468 5467 5467 5466 5465 5465 5464 5464 5463 5462 5462 5461
5485 5488 5490 5493 5495 5497 5500 5503 5506 5508 5510 5512 5514 5516 5518 5520 5522 5524 5525 5527 5528 5529 5531 5532 5533 5534 5535 5536 5536 5536 5536 5536 5535 5534 5533 5532 5531 5530 5528 5525 5523 5519 5516 5512 5508 5504 5499 5495 5490 5486 5483 5480 5477 5475 5473 5471 5470 5470 5469 5469 5468 5469 5469 5469 5469 5469 5468 5468 5467 5467 5466 5465 5464 5463 5462 5462 5461 5460 5460 5459 5458 5457 5456 5455 5455
5486 5488 5491 5493 5495 5498 5501 5503 5506 5507 5509 5511 5513 5515 5517 5519 5520 5522 5524 5525 5526 5527 5529 5530 5531 5532 5533 5533 5534 5534 5534 5534 5533 5532 5531 5530 5528 5526 5524 5522 5519 5516 5512 5508 5503 5499 5494 5489 5485 5481 5477 5474 5472 5470 5468 5467 5467 5466 5466 5465 5465 5465 5465 5465 5465 5465 5465 5465 5464 5463 5462 5461 5459 5458 5457 5457 5456 5455 5455 5454 5453 5452 5451 5451 5450
5488 5489 5492 5494 5496 5498 5501 5503 5505 5507 5508 5510 5512 5514 5516 5518 5519 5521 5522 5523 5525 5526 5527 5529 5530 5530 5531 5531 5532 5532 5532 5532 5531 5530 5528 5527 5525 5523 5521 5519 5516 5513 5509 5504 5499 5494 5489 5485 5480 5476 5472 5470 5468 5466 5465 5464 5464 5463 5463 5462 5462 5462 5462 5462 5463 5463 5462 5461 5460 5459 5458 5456 5455 5454 5453 5452 5452 5451 5450 5450 5449 5448 5447 5446 5446
5490 5491 5493 5495 5497 5499 5501 5503 5504 5506 5508 5510 5512 5513 5515 5516 5518 5519 5520 5522 5523 5525 5526 5527 5528 5528 5529 5530 5530 5531 5530 5529 5528 5527 5526 5524 5523 5521 5519 5516 5513 5510 5505 5501 5495 5490 5485 5481 5476 5472 5469 5466 5465 5464 5463 5462 5462 5461 5461 5460 5460 5460 5460 5460 5461 5460 5459 5458 5457 5455 5454 5453 5451 5450 5450 5449 5449 5448 5447 5447 5446 5446 5444 5443 5442
5491 5492 5494 5496 5497 5499 5501 5502 5504 5506 5508 5509 5511 5512 5513 5515 5517 5518 5520 5521 5523 5524 5525 5525 5526 5527 5528 5529 5529 5529 5528 5527 5526 5525 5524 5522 5520 5518 5516 5513 5510 5506 5502 5497 5492 5487 5482 5478 5473 5469 5466 5464 5463 5462 5461 5461 5460 5459 5459 5458 5458 5458 5459 5459 5459 5458 5457 5455 5454 5452 5451 5450 5449 5448 5448 5447 5447 5446 5446 5446 5445 5444 5442 5440 5440
5492 5494 5495 5496 5498 5499 5501 5503 5504 5506 5507 5508 5510 5511 5513 5514 5516 5517 5519 5520 5522 5522 5523 5524 5525 5526 5527 5528 5527 5527 5526 5526 5524 5523 5521 5520 5518 5516 5513 5510 5507 5503 5499 5495 5490 5484 5479 5475 5471 5467 5464 5463 5461 5461 5460 5459 5458 5457 5457 5457 5457 5457 5458 5458 5457 5456 5454 5453 5452 5450 5450 5449 5448 5447 5447 5446 5445 5445 5445 5445 5444 5443 5442 5441 5441
5493 5494 5496 5497 5498 5500 5501 5502 5503 5505 5506 5507 5509 5510 5512 5514 5515 5517 5518 5519 5520 5521 5522 5523 5524 5525 5526 5526 5526 5526 5525 5524 5522 5521 5519 5517 5515 5513 5510 5508 5504 5501 5497 5493 5488 5483 5478 5473 5469 5465 5463 5461 5460 5459 5459 5458 5457 5456 5455 5456 5456 5457 5457 5456 5455 5454 5453 5451 5450 5450 5449 5448 5448 5447 5446 5445 5444 5444 5444 5444 5444 5444 5444 5444 5444
5493 5494 5496 5497 5498 5499 5500 5501 5503 5504 5505 5507 5508 5510 5511 5513 5514 5516 5517 5518 5519 5520 5521 5522 5523 5524 5524 5524 5524 5524 5523 5522 5520 5519 5517 5515 5513 5511 5508 5505 5502 5499 5495 5491 5487 5482 5477 5472 5468 5464 5461 5460 5459 5458 5457 5456 5455 5455 5455 5455 5456 5456 5456 5455 5454 5453 5451 5450 5450 5449 5449 5448 5447 5446 5445 5444 5443 5443 5443 5444 5444 5445 5445 5446 5447
5494 5495 5495 5496 5497 5499 5500 5501 5502 5504 5505 5506 5508 5509 5511 5512 5513 5514 5515 5516 5517 5518 5520 5521 5521 5522 5522 5522 5522 5522 5521 5520 5518 5517 5515 5513 5511 5508 5506 5503 5500 5497 5493 5490 5486 5481 5477 5472 5468 5464 5461 5459 5458 5457 5457 5456 5455 5454 5455 5455 5455 5455 5455 5454 5453 5452 5451 5451 5450 5449 5449 5448 5447 5447 5446 5445 5444 5444 5444 5444 5445 5446 5447 5448 5449
5494 5495 5496 5497 5497 5499 5500 5501 5503 5504 5505 5506 5508 5509 5510 5511 5512 5513 5514 5515 5516 5517 5518 5519 5520 5520 5520 5520 5520 5520 5519 5517 5516 5515 5513 5511 5509 5506 5504 5501 5498 5495 5492 5488 5485 5480 5476 5472 5467 5464 5461 5459 5458 5457 5456 5455 5454 5454 5454 5455 5455 5455 5454 5454 5453 5452 5451 5451 5451 5450 5449 5448 5448 5447 5447 5446 5445 5445 5445 5446 5447 5448 5449 5450 5452
5495 5496 5496 5497 5498 5499 5500 5502 5503 5504 5505 5506 5507 5508 5509 5510 5510 5512 5513 5514 5515 5516 5517 5518 5518 5519 5519 5518 5518 5517 5517 5516 5514 5513 5512 5510 5507 5505 5502 5500 5497 5494 5491 5488 5484 5480 5476 5472 5468 5464 5461 5458 5457 5456 5455 5455 5454 5454 5454 5454 5455 5455 5454 5453 5453 5452 5452 5452 5451 5451 5450 5450 5449 5449 5448 5448 5448 5448 5448 5449 5450 5451 5452 5454 5455
5496 5497 5498 5498 5499 5500 5501 5502 5503 5504 5505 5506 5507 5507 5508 5508 5509 5510 5511 5512 5514 5515 5515 5516 5516 5517 5517 5516 5516 5515 5515 5514 5513 5511 5510 5508 5506 5504 5501 5499 5496 5493 5490 5487 5483 5480 5476 5472 5468 5464 5461 5458 5456 5455 5455 5454 5454 5454 5454 5454 5454 5454 5454 5454 5453 5453 5453 5453 5452 5452 5451 5451 5451 5450 5450 5450 5451 5452 5452 5452 5453 5454 5455 5456 5457
5497 5497 5498 5499 5500 5501 5502 5503 5503 5504 5505 5506 5506 5506 5507 5507 5508 5509 5510 5511 5512 5513 5514 5514 5514 5515 5514 5514 5514 5514 5513 5512 5511 5510 5508 5507 5505 5503 5500 5498 5495 5493 5490 5487 5483 5480 5476 5473 5469 5465 5462 5459 5456 5455 5455 5454 5454 5454 5454 5454 5454 5454 5454 5454 5454 5454 5454 5454 5454 5453 5453 5453 5453 5453 5453 5453 5453 5454 5455 5455 5456 5456 5457 5458 5459
5497 5497 5498 5499 5500 5500 5501 5502 5503 5504 5504 5505 5505 5506 5506 5507 5507 5508 5509 5510 5511 5511 5512 5512 5512 5512 5512 5512 5512 5512 5511 5510 5509 5508 5507 5505 5504 5502 5499 5497 5494 5492 5489 5487 5484 5480 5477 5473 5470 5467 5463 5460 5457 5455 5454 5454 5454 5454 5454 5454 5454 5454 5454 5454 5455 5455 5455 5455 5455 5455 5455 5455 5455 5455 5455 5455 5455 5456 5456 5457 5458 5459 5460 5461 5462